Wind_Speed
25 26 26 27 29 29 28 27 27 27 27 27 28 28 28 28 28 29 27 26 26 26 25 26 26 26 26 27 27 27 27 26 25 24 24 23 23 22 21 20 19 18 16 15 13 12 12 11 10
27 28 29 30 31 31 30 29 30 30 30 30 30 30 31 32 32 32 30 29 28 28 28 28 28 28 28 28 29 29 29 29 28 27 26 26 25 25 24 23 21 20 18 17 15 14 13 13 12
29 30 31 32 32 32 32 32 32 32 33 33 33 33 33 34 35 35 34 32 31 31 30 30 31 31 31 31 31 31 31 31 30 29 29 28 27 27 26 25 23 22 20 19 18 16 15 15 14
31 32 33 34 33 33 34 35 35 35 36 36 36 36 36 36 37 37 37 36 35 34 34 33 33 34 34 33 33 33 33 33 32 31 31 30 29 29 28 27 26 24 23 21 20 18 18 17 15
33 34 35 35 35 35 37 37 38 38 38 38 39 39 39 39 39 40 40 40 39 38 37 36 36 37 37 36 36 36 36 35 35 34 33 32 32 31 30 29 28 27 25 24 22 21 20 18 17
35 36 37 36 37 38 39 40 40 40 40 41 42 43 42 42 42 43 43 43 43 42 40 40 39 39 39 39 39 39 38 38 37 37 36 35 34 33 33 31 30 29 28 26 25 23 21 20 19
35 36 37 38 39 40 41 42 43 43 43 44 45 46 45 45 46 46 47 46 46 45 44 43 43 42 42 42 42 42 42 41 40 39 39 38 36 36 35 34 32 31 30 28 27 25 23 22 21
36 38 39 40 41 41 42 44 45 46 46 47 48 49 48 48 49 49 50 50 50 49 48 47 46 46 46 45 45 45 44 44 43 42 41 40 39 38 37 35 34 33 32 30 29 27 26 24 23
37 39 40 41 42 43 44 46 47 49 49 49 51 52 51 50 52 53 52 53 54 53 52 51 50 49 49 49 48 48 47 47 46 45 44 43 42 40 39 37 36 35 34 32 31 30 28 26 25
37 39 40 42 43 44 45 47 48 49 50 51 52 53 53 52 53 55 56 56 56 56 56 55 53 53 52 52 51 51 50 50 49 48 47 46 45 43 41 40 38 37 36 35 33 32 30 28 27
37 39 40 42 43 45 46 46 48 50 50 51 52 53 55 55 56 57 58 59 58 58 59 58 57 56 56 56 55 54 54 53 52 51 50 49 47 46 44 42 41 39 38 36 35 34 32 30 29
37 38 40 41 42 44 44 45 46 48 49 50 52 53 54 56 57 58 59 61 61 61 62 62 61 59 59 59 59 57 57 56 54 54 52 51 50 48 46 45 43 41 40 38 37 36 34 32 31
36 37 39 40 41 42 43 44 45 46 48 50 52 53 54 56 57 59 60 61 62 63 63 63 63 62 62 62 62 61 59 58 57 56 55 54 53 51 49 47 46 44 42 40 39 38 36 35 33
36 37 38 39 40 41 43 43 45 45 48 50 52 53 54 55 55 58 59 59 61 62 63 65 65 63 62 63 64 64 62 61 60 59 58 56 55 54 52 50 48 46 44 42 41 39 38 36 35
37 37 37 38 39 41 43 43 44 45 47 49 50 51 53 53 53 54 56 57 58 60 62 64 65 64 62 63 65 65 65 64 63 61 60 59 57 55 54 53 51 49 46 44 43 41 40 39 37
37 37 37 37 40 41 43 43 43 44 45 47 47 48 49 50 50 52 54 55 56 58 59 62 64 64 64 63 63 65 66 66 65 64 62 61 60 58 56 55 53 51 48 46 45 44 42 40 38
36 37 37 38 39 41 43 43 41 42 43 43 44 45 45 45 46 48 49 52 54 55 57 58 61 63 64 63 64 64 65 66 66 66 64 63 62 60 58 56 55 53 51 49 47 46 44 42 40
38 38 37 39 39 40 41 40 38 39 39 39 40 41 41 42 42 42 44 46 50 52 54 55 58 61 62 62 63 65 66 66 66 67 67 65 64 63 61 59 57 55 53 51 49 48 46 44 42
39 39 39 39 39 39 39 38 36 36 37 37 38 39 39 38 39 39 40 42 45 48 51 54 56 59 60 61 61 62 64 66 65 66 67 67 66 64 63 60 59 57 55 52 50 50 47 45 44
39 39 39 37 38 38 38 36 34 34 36 38 37 37 37 36 37 37 38 39 41 43 47 50 52 56 58 60 61 61 62 65 65 66 68 69 67 66 65 63 60 58 56 54 51 51 49 46 44
39 39 39 39 37 36 37 35 33 33 36 37 36 36 36 35 35 34 35 37 38 40 43 46 47 52 55 57 59 60 62 64 66 66 67 69 68 68 67 65 61 59 57 56 53 52 50 48 46
38 38 39 39 39 37 37 38 34 35 36 36 35 34 33 33 32 31 31 32 35 38 41 43 46 48 51 53 57 58 60 62 64 64 65 67 69 69 68 66 64 60 58 56 53 52 50 49 46
39 39 39 40 39 38 37 39 36 36 36 34 34 32 31 31 30 29 31 32 33 35 39 41 43 45 47 50 52 54 58 60 61 61 65 67 68 68 68 66 65 62 60 57 54 53 52 50 47
39 40 40 40 39 39 37 38 36 36 37 35 34 32 31 31 30 30 31 33 34 36 36 39 42 43 45 47 49 53 57 58 58 58 60 64 66 67 67 66 64 63 61 58 55 53 52 50 47
39 40 40 41 40 39 37 37 36 36 36 36 35 34 32 30 30 30 31 32 34 35 35 36 39 41 42 45 47 52 55 56 56 56 57 62 63 63 64 65 64 62 60 58 55 52 51 50 47
39 39 39 41 41 40 38 36 35 35 35 35 34 33 32 31 30 29 30 31 31 32 33 35 38 40 41 45 48 50 54 52 51 54 56 59 59 61 63 62 63 60 58 57 54 52 51 49 47
39 39 39 40 41 41 40 38 34 34 34 34 34 32 32 31 29 28 28 29 30 31 31 32 35 39 40 43 48 49 50 50 49 52 53 54 55 58 60 60 60 61 59 57 53 50 49 49 47
39 39 39 39 42 43 43 40 36 35 34 34 33 32 31 31 28 27 27 28 27 28 29 30 32 35 40 43 45 49 48 47 48 50 49 50 52 56 59 59 58 59 58 56 52 50 49 48 46
40 39 39 40 41 43 45 40 38 37 36 34 32 32 31 31 29 27 27 27 26 26 28 30 32 34 37 41 44 45 46 46 47 49 50 51 50 53 56 57 56 56 55 52 50 50 48 47 45
41 40 39 40 41 42 44 42 38 38 37 35 33 32 32 31 29 27 28 27 26 26 28 30 32 34 36 39 42 44 44 45 46 46 48 48 48 51 53 55 57 56 54 51 48 49 48 46 44
Wind_Direction
272 272 273 273 272 271 271 271 270 268 267 265 263 261 260 259 259 258 257 254 252 251 249 248 246 245 244 243 242 242 242 241 241 242 242 241 242 242 244 246 248 250 252 254 257 259 262 263 264
273 273 273 273 273 273 273 272 270 268 267 265 263 262 260 259 259 258 257 256 254 252 250 249 248 245 244 243 243 243 243 243 242 242 242 241 242 243 244 245 247 248 250 253 256 258 259 261 261
273 273 273 274 274 275 275 272 269 268 266 266 264 263 261 260 259 258 258 257 255 253 251 249 248 247 246 244 243 243 243 243 243 243 243 242 242 242 243 244 246 248 250 251 254 256 257 258 259
274 274 274 274 275 275 274 272 271 269 268 266 264 262 261 260 260 259 259 257 255 254 252 249 247 247 247 246 244 243 242 243 243 243 244 243 242 242 243 245 246 248 249 250 252 254 256 257 258
274 275 275 275 275 274 273 272 271 271 270 269 266 264 262 260 259 259 259 258 256 254 253 252 248 246 246 246 245 244 243 242 243 243 243 243 243 242 243 245 246 247 248 249 251 253 255 256 257
277 276 276 276 276 275 274 274 272 272 270 268 267 266 264 262 260 259 258 257 256 255 253 252 250 247 245 245 244 244 243 242 242 242 243 243 243 243 243 243 245 246 247 249 250 252 254 255 256
279 278 278 277 276 276 276 274 273 271 270 268 266 265 264 262 260 259 258 257 256 255 253 251 250 248 246 244 244 243 242 242 242 242 243 243 243 243 243 243 244 245 247 247 249 251 253 254 255
281 281 280 279 278 277 276 274 273 272 270 268 266 264 263 261 260 259 258 257 256 255 253 251 249 247 245 244 243 242 242 241 241 242 242 243 243 243 244 244 244 245 246 246 247 249 251 252 254
284 284 283 281 280 278 276 275 274 273 271 268 266 264 263 261 259 258 257 257 255 254 253 250 249 247 245 244 243 242 241 241 240 241 242 242 242 243 244 244 244 244 245 246 246 247 250 251 253
287 286 286 284 282 280 278 277 275 273 271 268 266 264 263 261 259 258 257 256 255 254 253 251 248 246 245 243 242 242 241 240 240 240 241 242 242 242 243 243 244 244 244 245 245 246 248 250 251
290 290 288 286 284 282 280 278 277 275 273 270 267 264 263 262 260 258 257 256 254 253 252 251 248 247 245 243 242 241 241 240 240 240 240 241 241 241 242 242 243 244 244 244 245 246 247 249 250
293 293 290 289 286 284 282 280 279 278 276 272 269 266 263 262 260 258 257 256 254 252 251 249 248 246 245 243 242 240 239 239 239 239 239 240 240 241 241 241 242 243 244 244 244 245 246 248 249
296 295 294 292 290 286 284 284 282 280 279 275 272 269 266 263 261 258 257 256 254 252 251 249 247 246 244 243 241 240 239 238 238 239 238 238 239 240 240 240 241 242 243 243 244 244 245 247 249
301 300 297 295 292 290 288 286 285 283 281 278 276 272 268 266 263 260 257 256 254 252 250 248 246 245 243 242 241 240 238 237 236 237 237 237 237 238 238 238 239 240 241 243 244 244 244 246 248
305 302 301 297 295 293 291 290 288 287 283 281 279 274 270 268 266 262 259 256 254 251 249 248 245 243 242 240 239 238 238 236 235 234 235 235 235 236 236 237 237 238 239 241 242 243 244 245 247
307 304 303 300 298 297 295 294 292 290 287 284 282 277 272 270 267 263 259 256 254 251 248 247 245 243 242 240 238 236 235 234 233 232 232 233 233 234 234 235 236 236 237 238 241 243 244 244 246
310 309 307 304 300 299 298 298 297 294 291 289 286 282 275 271 269 265 260 257 254 250 247 247 244 242 241 240 238 236 233 232 231 230 230 231 231 232 232 233 234 235 235 237 239 241 242 243 245
313 311 310 307 304 303 302 302 301 297 294 293 291 285 279 275 273 269 262 258 254 250 246 244 243 241 239 238 236 234 231 231 230 229 228 228 229 230 231 231 232 233 234 235 237 239 241 242 244
315 314 313 311 308 307 305 305 305 300 297 297 292 287 283 280 275 270 264 258 254 250 247 244 243 240 237 235 234 233 233 231 229 228 227 226 227 228 230 230 230 232 232 234 237 239 240 242 243
318 317 316 313 310 309 307 307 308 303 301 299 295 291 286 283 278 273 266 259 255 251 247 245 243 238 235 234 233 233 232 230 229 228 227 226 225 226 227 228 229 230 231 232 235 238 239 242 243
319 318 318 316 313 311 309 307 308 306 305 301 297 293 288 286 283 276 265 258 254 251 249 245 241 238 235 235 233 232 231 228 227 226 226 225 224 225 226 227 227 229 231 232 233 236 240 241 242
319 319 318 317 315 313 312 310 309 308 307 305 300 295 289 285 284 278 265 260 257 254 250 245 241 239 236 234 231 230 229 227 227 225 225 225 223 223 225 225 226 227 230 231 232 235 237 239 241
318 319 318 317 315 313 312 310 313 312 311 307 303 297 291 288 285 279 269 264 260 256 252 246 241 239 234 232 231 230 226 225 224 223 225 224 222 222 223 223 224 226 228 230 232 234 236 239 241
319 318 317 316 314 314 313 311 314 313 312 310 305 300 295 291 284 279 272 265 261 258 256 250 241 238 233 232 232 228 223 223 221 221 222 221 221 221 221 222 223 225 227 227 230 233 236 238 240
318 317 316 314 314 314 314 312 314 314 313 311 307 301 298 294 286 278 273 267 262 260 258 252 242 237 233 232 230 225 222 222 222 222 221 220 220 221 220 221 222 224 226 227 230 231 234 238 239
317 317 316 315 314 314 315 314 314 312 312 311 308 303 299 295 288 281 273 267 263 260 258 251 242 236 233 230 226 222 220 221 223 221 220 220 221 220 219 221 221 222 224 227 229 231 234 236 237
317 316 315 313 312 312 314 314 312 312 310 307 306 304 299 296 290 284 276 270 264 258 255 251 243 238 234 229 223 222 223 224 222 219 219 221 220 219 218 220 220 222 223 225 228 229 232 233 235
317 316 315 314 313 312 313 315 315 313 310 306 304 302 299 295 292 287 279 272 265 258 254 251 246 239 234 230 224 222 220 220 221 218 219 222 221 219 218 218 220 221 222 224 227 229 230 233 235
317 315 313 311 311 311 311 314 315 314 311 306 302 301 298 296 292 287 279 271 267 261 255 251 244 238 233 229 227 224 223 221 221 219 219 220 220 219 218 220 222 221 222 224 227 226 230 233 234
316 316 312 309 309 309 309 312 315 312 309 306 302 300 298 297 293 287 279 271 265 261 254 248 242 237 233 231 229 227 224 222 221 220 219 219 219 219 218 219 220 220 222 224 226 227 229 232 235
Height
5823 5823 5823 5824 5824 5823 5824 5826 5826 5827 5827 5828 5828 5829 5830 5831 5832 5835 5836 5837 5838 5839 5841 5842 5844 5845 5847 5848 5850 5852 5853 5855 5857 5858 5860 5861 5863 5865 5866 5867 5868 5869 5870 5871 5871 5871 5872 5872 5872
5817 5818 5818 5817 5817 5817 5818 5819 5819 5819 5820 5820 5821 5822 5822 5824 5825 5826 5828 5830 5832 5834 5835 5837 5839 5840 5842 5844 5845 5847 5849 5851 5853 5854 5856 5858 5859 5861 5863 5864 5865 5866 5867 5868 5869 5869 5870 5870 5871
5811 5811 5811 5811 5810 5811 5811 5811 5811 5811 5812 5812 5813 5814 5815 5817 5817 5819 5821 5823 5826 5828 5829 5831 5833 5835 5836 5838 5840 5842 5844 5846 5848 5850 5852 5854 5855 5857 5859 5860 5862 5863 5864 5865 5866 5867 5867 5868 5869
5805 5805 5804 5804 5803 5804 5802 5802 5802 5802 5803 5804 5805 5806 5807 5809 5810 5811 5813 5815 5818 5821 5823 5824 5826 5828 5830 5832 5834 5837 5839 5841 5843 5845 5847 5849 5851 5853 5855 5856 5858 5860 5861 5862 5863 5864 5865 5866 5866
5798 5797 5796 5795 5795 5795 5793 5793 5793 5793 5794 5794 5794 5796 5798 5800 5801 5802 5804 5806 5809 5812 5815 5817 5819 5821 5823 5825 5828 5830 5833 5835 5837 5840 5842 5844 5846 5848 5850 5852 5854 5856 5857 5858 5860 5861 5862 5863 5863
5790 5789 5788 5787 5786 5785 5784 5783 5783 5783 5784 5784 5784 5785 5789 5790 5791 5793 5794 5797 5799 5803 5806 5808 5811 5813 5815 5817 5820 5823 5826 5828 5831 5834 5836 5838 5840 5842 5845 5847 5849 5851 5853 5855 5856 5857 5858 5859 5860
5782 5780 5778 5778 5777 5775 5774 5773 5772 5772 5772 5773 5773 5774 5778 5779 5780 5781 5783 5786 5788 5792 5795 5798 5801 5804 5806 5809 5812 5815 5818 5821 5824 5827 5829 5832 5835 5837 5839 5841 5844 5846 5848 5850 5852 5853 5855 5856 5857
5772 5771 5768 5767 5766 5765 5763 5761 5760 5759 5760 5760 5760 5762 5766 5768 5768 5769 5772 5773 5776 5780 5783 5787 5791 5794 5797 5800 5803 5806 5810 5813 5816 5819 5822 5825 5828 5831 5833 5836 5838 5840 5843 5845 5847 5849 5850 5852 5853
5762 5761 5758 5756 5754 5753 5751 5749 5748 5746 5746 5746 5746 5747 5751 5753 5754 5756 5759 5761 5763 5766 5770 5774 5779 5782 5786 5789 5793 5796 5800 5804 5807 5810 5814 5817 5820 5824 5827 5829 5832 5835 5837 5839 5842 5844 5845 5847 5848
5752 5749 5747 5744 5741 5740 5738 5735 5734 5732 5731 5731 5731 5732 5734 5736 5739 5741 5744 5747 5749 5753 5756 5760 5765 5770 5774 5777 5782 5786 5789 5794 5798 5801 5805 5809 5812 5816 5819 5823 5825 5828 5831 5833 5836 5838 5840 5842 5844
5742 5739 5735 5732 5728 5726 5724 5722 5719 5717 5717 5716 5716 5718 5718 5720 5722 5724 5727 5730 5734 5738 5741 5745 5750 5755 5760 5764 5769 5774 5778 5783 5787 5792 5796 5800 5803 5807 5811 5815 5818 5821 5824 5827 5830 5832 5834 5837 5839
5732 5728 5723 5720 5716 5712 5709 5708 5706 5703 5702 5701 5701 5701 5702 5703 5705 5707 5709 5712 5716 5720 5725 5729 5734 5739 5744 5749 5755 5760 5766 5771 5776 5781 5786 5790 5794 5798 5803 5807 5811 5814 5817 5820 5823 5826 5828 5831 5833
5721 5717 5712 5707 5703 5700 5697 5694 5692 5691 5688 5686 5685 5684 5685 5686 5687 5689 5691 5694 5697 5701 5706 5711 5716 5723 5728 5733 5739 5746 5752 5758 5764 5769 5774 5779 5784 5789 5793 5798 5802 5806 5810 5813 5816 5819 5822 5824 5826
5711 5706 5701 5696 5692 5688 5685 5682 5678 5677 5673 5671 5669 5667 5667 5667 5668 5670 5673 5675 5678 5682 5686 5691 5697 5704 5710 5716 5722 5729 5737 5744 5750 5756 5762 5768 5773 5778 5783 5788 5792 5797 5802 5805 5808 5812 5814 5817 5820
5701 5697 5692 5686 5681 5677 5673 5671 5665 5662 5659 5656 5653 5651 5649 5649 5649 5651 5653 5656 5660 5663 5667 5672 5678 5685 5692 5698 5704 5712 5720 5728 5735 5742 5748 5755 5761 5767 5772 5777 5783 5788 5793 5797 5800 5803 5807 5810 5813
5692 5687 5682 5677 5671 5665 5663 5660 5655 5648 5644 5641 5638 5635 5633 5633 5633 5633 5635 5637 5640 5644 5648 5652 5659 5666 5673 5680 5686 5694 5702 5710 5718 5727 5734 5741 5748 5754 5761 5767 5772 5778 5783 5788 5791 5795 5799 5802 5805
5683 5678 5672 5667 5660 5655 5650 5646 5642 5635 5630 5627 5624 5620 5618 5618 5618 5618 5619 5620 5622 5625 5630 5634 5640 5647 5654 5661 5668 5676 5684 5692 5701 5710 5719 5727 5735 5742 5748 5755 5761 5767 5773 5778 5782 5786 5790 5794 5797
5674 5668 5662 5656 5650 5645 5639 5635 5631 5624 5619 5615 5611 5608 5606 5604 5604 5603 5603 5604 5606 5609 5613 5618 5623 5629 5636 5643 5650 5658 5667 5675 5684 5694 5702 5712 5720 5728 5735 5743 5750 5756 5762 5768 5773 5777 5781 5785 5789
5664 5658 5652 5647 5640 5634 5630 5625 5621 5615 5610 5606 5601 5597 5594 5592 5591 5590 5589 5590 5592 5595 5598 5602 5606 5612 5619 5626 5633 5641 5650 5659 5668 5677 5687 5696 5705 5714 5722 5730 5737 5744 5751 5757 5763 5767 5772 5776 5780
5655 5649 5644 5639 5632 5625 5622 5618 5613 5607 5602 5597 5592 5587 5584 5581 5580 5578 5578 5578 5579 5582 5584 5587 5591 5597 5603 5610 5618 5625 5634 5642 5652 5662 5671 5681 5690 5699 5708 5717 5725 5732 5739 5746 5752 5758 5762 5767 5771
5648 5641 5635 5629 5624 5619 5613 5611 5607 5601 5594 5589 5583 5579 5575 5572 5569 5568 5567 5567 5568 5569 5572 5574 5578 5583 5588 5594 5601 5609 5616 5625 5635 5644 5655 5666 5675 5685 5694 5704 5713 5721 5729 5736 5742 5748 5754 5758 5763
5641 5635 5628 5621 5615 5611 5606 5600 5601 5594 5587 5581 5576 5571 5568 5564 5561 5559 5558 5558 5559 5559 5560 5562 5565 5569 5574 5579 5585 5593 5600 5610 5620 5630 5641 5650 5660 5670 5681 5691 5700 5709 5717 5725 5731 5738 5744 5748 5753
5633 5627 5621 5614 5608 5604 5599 5593 5593 5586 5580 5575 5569 5564 5560 5557 5554 5551 5550 5550 5550 5550 5550 5551 5554 5557 5561 5566 5572 5579 5587 5596 5606 5616 5626 5635 5646 5656 5667 5678 5687 5697 5705 5714 5721 5728 5733 5739 5744
5626 5620 5614 5608 5602 5598 5592 5586 5583 5578 5572 5567 5562 5557 5553 5549 5546 5543 5542 5541 5541 5541 5540 5541 5543 5546 5550 5555 5560 5567 5575 5584 5593 5602 5611 5622 5633 5644 5654 5665 5675 5685 5693 5702 5710 5718 5724 5730 5735
5619 5613 5606 5600 5594 5591 5585 5579 5576 5571 5564 5559 5554 5549 5545 5541 5538 5535 5533 5532 5531 5531 5531 5532 5533 5537 5541 5545 5550 5557 5565 5574 5582 5590 5600 5611 5621 5632 5643 5652 5663 5673 5681 5691 5700 5707 5713 5720 5725
5612 5606 5600 5592 5586 5582 5578 5573 5571 5564 5558 5552 5547 5542 5538 5534 5531 5528 5525 5524 5523 5523 5523 5523 5525 5529 5533 5537 5542 5548 5556 5564 5573 5581 5590 5600 5610 5622 5632 5642 5652 5661 5671 5681 5690 5697 5704 5710 5716
5604 5598 5593 5585 5578 5573 5570 5566 5563 5558 5552 5546 5541 5536 5532 5528 5524 5521 5519 5517 5516 5516 5516 5516 5518 5521 5525 5529 5535 5542 5549 5557 5564 5573 5582 5590 5600 5612 5622 5632 5641 5652 5661 5671 5679 5687 5694 5701 5706
5597 5591 5584 5577 5570 5563 5560 5557 5555 5550 5544 5539 5534 5529 5525 5521 5518 5515 5512 5510 5509 5509 5509 5509 5511 5514 5518 5522 5527 5535 5542 5550 5557 5566 5575 5583 5593 5602 5612 5622 5632 5641 5651 5660 5670 5678 5685 5691 5697
5591 5585 5577 5570 5564 5556 5550 5552 5548 5542 5536 5531 5527 5522 5518 5515 5511 5508 5506 5504 5503 5503 5503 5503 5505 5508 5512 5516 5521 5527 5534 5542 5550 5557 5566 5575 5584 5594 5604 5614 5622 5632 5643 5651 5660 5669 5675 5682 5688
5582 5577 5570 5564 5558 5550 5542 5544 5542 5535 5528 5523 5519 5515 5511 5508 5505 5502 5499 5497 5497 5496 5496 5497 5499 5502 5506 5510 5515 5520 5527 5535 5543 5551 5559 5568 5577 5587 5596 5605 5614 5624 5633 5642 5651 5659 5667 5673 5679